Overview Statistics Trail Chart Weather Telemetry Raw packets
 

This is the latest recevied weather packets stored in our database for station/object HB9FHL-13. If no packets are shown the sender has not sent any weather packets the latest 10 day(s).

<< 33 34 35 36 37 38 39 >>
Time Temp. Humidity Pressure Rain* Wind** Luminosity Snow
1788486866 19.44° C - 1028.4 hPa 0 mm - - -
1788486566 20.56° C - 1025.1 hPa 0 mm - - -
1788486265 20.56° C - 1025.9 hPa 0 mm - - -
1788485965 20.56° C - 1023 hPa 0 mm - - -
1788485664 20.56° C - 1025.6 hPa 0 mm - - -
1788485364 20° C - 1026.4 hPa 0 mm - - -
1788485063 21.11° C - 1024.5 hPa 0 mm - - -
1788484823 21.11° C - 1026.2 hPa 0 mm - - -
1788484763 21.11° C - 1026.2 hPa 0 mm - - -
1788484462 21.11° C - 1028 hPa 0 mm - - -
1788484162 21.11° C - 1022.6 hPa 0 mm - - -
1788483861 21.67° C - 1025.9 hPa 0 mm - - -
1788483561 21.11° C - 1025.1 hPa 0 mm - - -
1788483260 20.56° C - 1018.5 hPa 0 mm - - -
1788482674 20.56° C - 1026.6 hPa 0 mm - - -
1788482357 21.11° C - 1023.1 hPa 0 mm - - -
1788482057 20.56° C - 1021.4 hPa 0 mm - - -
1788481756 21.11° C - 1028.2 hPa 0 mm - - -
1788481456 21.11° C - 1030.3 hPa 0 mm - - -
1788481156 21.11° C - 1026.4 hPa 0 mm - - -
1788480855 21.11° C - 1024.1 hPa 0 mm - - -
1788480554 21.11° C - 1023.7 hPa 0 mm - - -
1788480254 21.11° C - 1029.5 hPa 0 mm - - -
1788479953 21.67° C - 1023.2 hPa 0 mm - - -
1788479650 21.11° C - 1023.7 hPa 0 mm - - -

* Rain since midnight (hover to see other rain measurements)
** Current wind speed in m/s (hover to see current wind gust speed)